Tehachapi, CA

3:02 AM PDT on October 17, 2017 (GMT -0700)
Tehachapi Municipal

Weather History for KTSP - May, 2012

Change the Weather History Date:

Wednesday, May 16, 2012

  Actual Average Record
Temperature  
Mean Temperature 64 °F -  
Max Temperature 77 °F 72 °F 82 °F (2014)
Min Temperature 50 °F 44 °F 39 °F (2017)
Degree Days  
Heating Degree Days 2    
Growing Degree Days 14 (Base 50)    
Moisture  
Dew Point 41 °F    
Average Humidity 46    
Maximum Humidity 62    
Minimum Humidity 28    
Precipitation  
Precipitation 0.00 in - - ()
Sea Level Pressure  
Sea Level Pressure 30.08 in    
Wind  
Wind Speed 10 mph (NW)    
Max Wind Speed 20 mph    
Max Gust Speed 26 mph    
Visibility 8 miles    
Events      
Averages and records for this station are not official NWS values.
T = Trace of Precipitation, MM = Missing Value Source: NWS Daily Summary

Daily Weather History Graph

Daily Weather History Graph

Search for Another Location

Airport or City:

Trip Planner

Search our weather history database for the weather conditions in past years. The results will help you decide how hot, cold, wet, or windy it might be!

Date:

Astronomy

May. 16, 2012 Rise Set
Actual Time 5:48 AM PDT 7:52 PM PDT
Civil Twilight 5:20 AM PDT 8:20 PM PDT
Nautical Twilight 4:46 AM PDT 8:54 PM PDT
Astronomical Twilight 4:09 AM PDT 9:31 PM PDT
Moon 3:12 AM PDT (5/16) 4:18 PM PDT (5/16)
Length of Visible Light 14h 59m
Length of Day
14h 03m
Waning Crescent, 15% of the Moon is Illuminated
May 16
Waning Crescent
May 20
New
May 28
First Quarter
Jun 4
Full
Jun 11
Last Quarter

Hourly Weather History & Observations

Time (PDT) Temp. Dew Point Humidity Pressure Visibility Wind Dir Wind Speed Gust Speed Precip Events Conditions
12:15 AM 53.6 °F 37.4 °F 54% 30.10 in 9.0 mi NNW 6.9 mph - N/A   Clear
12:35 AM 51.8 °F 37.4 °F 58% 30.09 in 10.0 mi NW 5.8 mph - N/A   Clear
12:55 AM 53.6 °F 37.4 °F 54% 30.09 in 9.0 mi West 5.8 mph - N/A   Clear
1:15 AM 53.6 °F 35.6 °F 51% 30.09 in 10.0 mi NW 8.1 mph - N/A   Clear
1:35 AM 51.8 °F 35.6 °F 54% 30.08 in 10.0 mi NW 6.9 mph - N/A   Clear
1:55 AM 51.8 °F 35.6 °F 54% 30.08 in 9.0 mi NW 4.6 mph - N/A   Clear
2:15 AM 50.0 °F 35.6 °F 58% 30.07 in 10.0 mi NW 6.9 mph - N/A   Clear
2:35 AM 51.8 °F 33.8 °F 50% 30.07 in 10.0 mi NW 6.9 mph - N/A   Clear
2:55 AM 51.8 °F 35.6 °F 54% 30.08 in 10.0 mi West 4.6 mph - N/A   Clear
3:15 AM 51.8 °F 35.6 °F 54% 30.08 in 10.0 mi NW 6.9 mph - N/A   Clear
3:35 AM 50.0 °F 35.6 °F 58% 30.08 in 10.0 mi NW 9.2 mph - N/A   Clear
3:55 AM 50.0 °F 35.6 °F 58% 30.08 in 10.0 mi NNW 8.1 mph - N/A   Clear
4:35 AM 51.8 °F 35.6 °F 54% 30.08 in 10.0 mi NW 9.2 mph - N/A   Clear
4:55 AM 51.8 °F 35.6 °F 54% 30.08 in 9.0 mi NW 10.4 mph - N/A   Clear
5:15 AM 51.8 °F 35.6 °F 54% 30.08 in 10.0 mi WNW 8.1 mph - N/A   Clear
5:35 AM 50.0 °F 35.6 °F 58% 30.08 in 9.0 mi WNW 4.6 mph - N/A   Clear
5:55 AM 50.0 °F 35.6 °F 58% 30.09 in 7.0 mi West 9.2 mph - N/A   Clear
6:15 AM 50.0 °F 37.4 °F 62% 30.09 in 7.0 mi West 8.1 mph - N/A   Clear
6:35 AM 53.6 °F 37.4 °F 54% 30.09 in 7.0 mi West 6.9 mph - N/A   Clear
6:55 AM 55.4 °F 37.4 °F 51% 30.10 in 8.0 mi West 6.9 mph - N/A   Clear
7:15 AM 59.0 °F 39.2 °F 48% 30.10 in 7.0 mi NW 8.1 mph - N/A   Clear
7:35 AM 60.8 °F 39.2 °F 45% 30.10 in 7.0 mi NW 10.4 mph - N/A   Clear
7:55 AM 62.6 °F 39.2 °F 42% 30.09 in 7.0 mi NW 11.5 mph - N/A   Clear
8:15 AM 64.4 °F 39.2 °F 40% 30.09 in 7.0 mi NW 11.5 mph - N/A   Clear
8:35 AM 64.4 °F 39.2 °F 40% 30.10 in 8.0 mi NW 11.5 mph - N/A   Clear
8:55 AM 66.2 °F 39.2 °F 37% 30.10 in 8.0 mi WNW 11.5 mph 17.3 mph N/A   Clear
9:55 AM 68.0 °F 41.0 °F 37% 30.10 in 8.0 mi NW 12.7 mph - N/A   Clear
10:15 AM 69.8 °F 41.0 °F 35% 30.10 in 8.0 mi NW 11.5 mph 18.4 mph N/A   Clear
10:35 AM 71.6 °F 41.0 °F 33% 30.10 in 8.0 mi WNW 15.0 mph 20.7 mph N/A   Clear
10:55 AM 71.6 °F 41.0 °F 33% 30.10 in 8.0 mi WNW 13.8 mph 20.7 mph N/A   Clear
11:15 AM 73.4 °F 41.0 °F 31% 30.10 in 8.0 mi NW 12.7 mph 18.4 mph N/A   Clear
11:35 AM 75.2 °F 41.0 °F 29% 30.09 in 7.0 mi NW 13.8 mph 18.4 mph N/A   Clear
11:55 AM - - N/A% - 8.0 mi North - - N/A   Clear
12:15 PM - - N/A% 30.08 in 8.0 mi NW 17.3 mph - N/A   Unknown
12:35 PM 75.2 °F 41.0 °F 29% 30.08 in 7.0 mi NW 18.4 mph 24.2 mph N/A   Clear
12:55 PM - - N/A% - 7.0 mi North - - N/A   Unknown
1:15 PM 77.0 °F 41.0 °F 28% 30.07 in 7.0 mi NW 18.4 mph 21.9 mph N/A   Unknown
1:35 PM - - N/A% - - North - - N/A   Unknown
1:55 PM 77.0 °F 42.8 °F 29% - 9.0 mi North - - N/A   Unknown
2:15 PM 77.0 °F 42.8 °F 29% 30.06 in 7.0 mi NW 18.4 mph 24.2 mph N/A   Unknown
2:35 PM - - N/A% - 8.0 mi North - - N/A   Unknown
2:55 PM - - N/A% 30.05 in - NW 19.6 mph 23.0 mph N/A   Unknown
3:15 PM 77.0 °F 42.8 °F 29% 30.05 in 7.0 mi NW 18.4 mph 25.3 mph N/A   Clear
3:35 PM - - N/A% 30.04 in 8.0 mi NW 17.3 mph 26.5 mph N/A   Unknown
3:55 PM - - N/A% - 8.0 mi North - - N/A   Unknown
4:15 PM - - N/A% 30.04 in - NW 17.3 mph 23.0 mph N/A   Unknown
4:35 PM 77.0 °F 44.6 °F 32% 30.05 in 7.0 mi NW 16.1 mph 21.9 mph N/A   Clear
4:55 PM 77.0 °F 44.6 °F 32% 30.05 in 8.0 mi NW 16.1 mph 21.9 mph N/A   Clear
5:15 PM 75.2 °F 44.6 °F 34% 30.05 in 8.0 mi NW 17.3 mph 23.0 mph N/A   Clear
5:35 PM 75.2 °F 44.6 °F 34% 30.04 in 7.0 mi NW 15.0 mph 19.6 mph N/A   Clear
5:55 PM 73.4 °F 44.6 °F 36% 30.05 in 7.0 mi NW 15.0 mph 21.9 mph N/A   Unknown
6:15 PM 73.4 °F 44.6 °F 36% 30.05 in 7.0 mi NW 13.8 mph 18.4 mph N/A   Clear
6:35 PM 73.4 °F 44.6 °F 36% 30.05 in 7.0 mi NW 13.8 mph - N/A   Clear
7:15 PM 69.8 °F 44.6 °F 40% 30.05 in 7.0 mi NW 10.4 mph - N/A   Clear
7:35 PM 68.0 °F 44.6 °F 43% 30.06 in 7.0 mi WNW 10.4 mph - N/A   Clear
7:55 PM 66.2 °F 46.4 °F 49% 30.06 in 7.0 mi West 8.1 mph - N/A   Clear
8:15 PM 64.4 °F 46.4 °F 52% 30.07 in 8.0 mi West 9.2 mph - N/A   Clear
8:35 PM - - N/A% - - North - - N/A   Unknown
8:55 PM 64.4 °F 46.4 °F 52% 30.07 in 8.0 mi West 9.2 mph - N/A   Unknown
9:15 PM - - N/A% - - North - - N/A   Unknown
9:35 PM 62.6 °F 46.4 °F 55% 30.07 in 8.0 mi WNW 9.2 mph - N/A   Unknown
9:55 PM 62.6 °F 46.4 °F 55% 30.08 in 10.0 mi NW 9.2 mph - N/A   Clear
10:15 PM 62.6 °F 46.4 °F 55% 30.08 in 8.0 mi NW 10.4 mph - N/A   Clear
10:35 PM 62.6 °F 46.4 °F 55% 30.08 in 9.0 mi WNW 9.2 mph - N/A   Clear
10:55 PM 62.6 °F 46.4 °F 55% 30.07 in 8.0 mi WNW 11.5 mph - N/A   Clear
11:15 PM 62.6 °F 46.4 °F 55% 30.07 in 9.0 mi WNW 11.5 mph - N/A   Clear
11:35 PM 62.6 °F 46.4 °F 55% 30.06 in 8.0 mi WNW 15.0 mph - N/A   Clear
11:55 PM 62.6 °F 46.4 °F 55% 30.06 in 8.0 mi WNW 15.0 mph - N/A   Clear